Tracking 32954 objects as of 19-Jan-2026
HD Live streaming from Space Station
objects crossing your sky now

ATLAS 5 CENTAUR DEB

Track ATLAS 5 CENTAUR DEB now!


NORAD ID: 44039
Int'l Code: 2014-055BZ
Perigee: 7,835.9 km
Apogee: 34,603.0 km
Inclination: 20.4 °
Period: 760.1 minutes
Semi major axis: 27590 km
RCS: Unknown
Launch date: September 17, 2014
Source: United States (US)
Launch site: ()

Note: This is SATELLITE DEBRIS
Your satellite tracking list
Your tracking list is empty




NASA's NSSDC Master Catalog

Two Line Element Set (TLE):
1 44039U 14055BZ  26017.96334312 -.00000106  00000-0  00000-0 0  9990
2 44039  20.3604 141.6722 4850779 170.1634 204.5951  1.89436759 49632
Source of the keplerian elements: AFSPC